�������l�o���
Date,Time,MP-1(��Sv/h),MP-2(��Sv/h),MP-3(��Sv/h),MP-4(��Sv/h),MP-5(��Sv/h),MP-6(��Sv/h),MP-7(��Sv/h),MP-8(��Sv/h),����,����(m/s),���J
2022/04/16,00:00,0.549,0.802,0.527,0.979,0.685,0.341,0.581,0.556,�k,8.5,�L
2022/04/16,00:10,0.547,0.805,0.528,0.979,0.684,0.340,0.581,0.553,�k,10.5,�L
2022/04/16,00:20,0.549,0.804,0.528,0.983,0.687,0.339,0.582,0.555,�k,9.4,�L
2022/04/16,00:30,0.549,0.803,0.527,0.981,0.684,0.341,0.582,0.554,�k�k��,7.9,�L
2022/04/16,00:40,0.548,0.802,0.525,0.983,0.685,0.340,0.582,0.555,�k,8.7,�L
2022/04/16,00:50,0.548,0.802,0.526,0.980,0.685,0.341,0.580,0.553,�k�k��,7.4,�L
2022/04/16,01:00,0.547,0.802,0.526,0.980,0.684,0.341,0.581,0.555,�k�k��,8.9,�L
2022/04/16,01:10,0.548,0.802,0.527,0.980,0.682,0.340,0.579,0.554,�k�k��,8.2,�L
2022/04/16,01:20,0.548,0.802,0.525,0.978,0.683,0.341,0.581,0.554,�k,8.3,�L
2022/04/16,01:30,0.548,0.801,0.527,0.977,0.684,0.340,0.581,0.554,�k�k��,9.2,�L
2022/04/16,01:40,0.549,0.804,0.528,0.980,0.685,0.339,0.582,0.554,�k�k��,8.7,�L
2022/04/16,01:50,0.549,0.805,0.527,0.982,0.685,0.341,0.583,0.554,�k�k��,9.4,�L
2022/04/16,02:00,0.549,0.803,0.526,0.984,0.685,0.340,0.581,0.555,�k,8.0,�L
2022/04/16,02:10,0.549,0.806,0.527,0.982,0.684,0.342,0.582,0.554,�k�k��,8.0,�L
2022/04/16,02:20,0.548,0.804,0.526,0.982,0.684,0.339,0.580,0.555,�k�k��,9.3,�L
2022/04/16,02:30,0.549,0.804,0.528,0.983,0.685,0.340,0.582,0.555,�k�k��,8.4,�L
2022/04/16,02:40,0.550,0.804,0.527,0.984,0.685,0.342,0.582,0.556,�k�k��,7.7,�L
2022/04/16,02:50,0.547,0.804,0.529,0.980,0.686,0.342,0.582,0.554,�k�k��,8.9,�L
2022/04/16,03:00,0.547,0.803,0.528,0.983,0.685,0.340,0.583,0.554,�k�k��,8.4,�L
2022/04/16,03:10,0.548,0.803,0.527,0.982,0.685,0.341,0.583,0.555,�k�k��,8.2,�L
2022/04/16,03:20,0.548,0.804,0.526,0.981,0.685,0.342,0.581,0.554,�k�k��,8.4,�L
2022/04/16,03:30,0.550,0.805,0.528,0.985,0.686,0.341,0.582,0.554,�k�k��,8.2,�L
2022/04/16,03:40,0.551,0.806,0.527,0.984,0.687,0.341,0.584,0.556,�k�k��,8.2,�L
2022/04/16,03:50,0.551,0.808,0.527,0.986,0.687,0.341,0.582,0.555,�k�k��,8.9,�L
2022/04/16,04:00,0.550,0.807,0.528,0.986,0.686,0.340,0.583,0.554,�k�k��,10.5,�L
2022/04/16,04:10,0.551,0.806,0.527,0.990,0.688,0.341,0.582,0.555,�k�k��,8.3,�L
2022/04/16,04:20,0.551,0.808,0.529,0.986,0.688,0.342,0.583,0.555,�k�k��,7.8,�L
2022/04/16,04:30,0.550,0.808,0.529,0.990,0.689,0.342,0.583,0.557,�k�k��,7.4,�L
2022/04/16,04:40,0.551,0.808,0.527,0.991,0.689,0.341,0.584,0.557,�k�k��,7.4,�L
2022/04/16,04:50,0.552,0.808,0.527,0.988,0.691,0.341,0.584,0.555,�k�k��,7.1,�L
2022/04/16,05:00,0.553,0.808,0.527,0.991,0.688,0.340,0.584,0.556,�k�k��,8.6,�L
2022/04/16,05:10,0.551,0.808,0.526,0.989,0.690,0.341,0.584,0.556,�k�k��,8.2,�L
2022/04/16,05:20,0.552,0.810,0.528,0.991,0.690,0.340,0.584,0.556,�k�k��,6.4,�L
2022/04/16,05:30,0.550,0.809,0.528,0.990,0.690,0.339,0.584,0.557,�k�k��,7.4,�L
2022/04/16,05:40,0.552,0.811,0.528,0.992,0.691,0.340,0.585,0.556,�k�k��,7.3,�L
2022/04/16,05:50,0.551,0.811,0.529,0.992,0.691,0.342,0.584,0.556,�k�k��,6.6,�L
2022/04/16,06:00,0.552,0.811,0.529,0.993,0.691,0.340,0.586,0.556,�k�k��,6.9,�L
2022/04/16,06:10,0.553,0.812,0.528,0.992,0.692,0.340,0.586,0.556,�k,8.7,�L
2022/04/16,06:20,0.552,0.811,0.528,0.994,0.692,0.340,0.584,0.557,�k�k��,8.5,�L
2022/04/16,06:30,0.552,0.811,0.528,0.997,0.692,0.339,0.586,0.557,�k�k��,8.7,�L
2022/04/16,06:40,0.553,0.811,0.527,0.993,0.692,0.340,0.586,0.558,�k,7.9,�L
2022/04/16,06:50,0.553,0.815,0.527,0.994,0.692,0.340,0.586,0.556,�k,7.1,�L
2022/04/16,07:00,0.553,0.813,0.529,0.995,0.692,0.342,0.586,0.558,�k�k��,7.4,�L
2022/04/16,07:10,0.554,0.814,0.530,0.999,0.693,0.340,0.587,0.555,�k�k��,7.4,�L
2022/04/16,07:20,0.554,0.813,0.527,0.999,0.694,0.341,0.587,0.558,�k�k��,7.7,�L
2022/04/16,07:30,0.552,0.814,0.530,0.999,0.695,0.341,0.586,0.556,�k�k��,8.1,�L
2022/04/16,07:40,0.554,0.813,0.530,1.000,0.694,0.341,0.588,0.555,�k�k��,6.6,�L
2022/04/16,07:50,0.553,0.815,0.528,0.999,0.695,0.340,0.587,0.558,�k�k��,7.0,�L
2022/04/16,08:00,0.553,0.815,0.530,0.998,0.696,0.340,0.587,0.557,�k�k��,7.8,�L
2022/04/16,08:10,0.554,0.815,0.529,0.999,0.696,0.342,0.587,0.557,�k�k��,7.9,�L
2022/04/16,08:20,0.553,0.812,0.531,1.000,0.697,0.341,0.587,0.557,�k�k��,8.6,�L
2022/04/16,08:30,0.554,0.813,0.528,1.001,0.697,0.342,0.586,0.557,�k�k��,6.6,�L
2022/04/16,08:40,0.554,0.815,0.530,1.000,0.697,0.340,0.587,0.557,�k�k��,8.4,�L
2022/04/16,08:50,0.554,0.816,0.530,0.998,0.699,0.340,0.587,0.556,�k�k��,7.9,�L
2022/04/16,09:00,0.555,0.817,0.530,1.002,0.697,0.341,0.588,0.557,�k�k��,7.3,�L
2022/04/16,09:10,0.555,0.816,0.529,1.003,0.698,0.341,0.587,0.558,�k�k��,9.2,�L
2022/04/16,09:20,0.557,0.815,0.530,1.002,0.698,0.340,0.585,0.557,�k�k��,9.4,�L
2022/04/16,09:30,0.555,0.816,0.529,1.003,0.699,0.342,0.586,0.557,�k�k��,8.4,�L
2022/04/16,09:40,0.555,0.815,0.529,1.003,0.698,0.341,0.586,0.558,�k�k��,9.3,�L
2022/04/16,09:50,0.557,0.819,0.530,1.001,0.700,0.341,0.585,0.557,�k�k��,8.2,�L
2022/04/16,10:00,0.556,0.815,0.530,1.001,0.701,0.341,0.588,0.557,�k�k��,7.1,�L
2022/04/16,10:10,0.556,0.817,0.530,1.004,0.702,0.341,0.585,0.558,�k�k��,8.0,�L
2022/04/16,10:20,0.557,0.817,0.530,1.003,0.699,0.341,0.585,0.557,�k�k��,8.3,�L
2022/04/16,10:30,0.556,0.818,0.531,1.003,0.700,0.341,0.586,0.558,�k,7.1,��
2022/04/16,10:40,0.556,0.817,0.532,1.003,0.703,0.342,0.586,0.559,�k,7.4,��
2022/04/16,10:50,0.557,0.818,0.531,1.004,0.702,0.341,0.587,0.558,�k,7.6,��
2022/04/16,11:00,0.556,0.820,0.532,1.005,0.701,0.341,0.585,0.559,�k�k��,7.9,��
2022/04/16,11:10,0.557,0.820,0.532,1.004,0.706,0.342,0.586,0.560,�k�k��,8.0,��
2022/04/16,11:20,0.558,0.822,0.532,1.006,0.704,0.341,0.586,0.559,�k�k��,7.6,��
2022/04/16,11:30,0.560,0.823,0.532,1.003,0.703,0.342,0.585,0.559,�k�k��,6.8,��
2022/04/16,11:40,0.558,0.822,0.533,1.006,0.704,0.341,0.586,0.560,�k��,6.9,��
2022/04/16,11:50,0.558,0.821,0.532,1.005,0.703,0.341,0.586,0.557,�k�k��,7.1,��
2022/04/16,12:00,0.559,0.820,0.532,1.008,0.700,0.340,0.586,0.557,�k�k��,7.6,��
2022/04/16,12:10,0.558,0.822,0.532,1.006,0.700,0.342,0.586,0.558,�k�k��,7.5,��
2022/04/16,12:20,0.558,0.820,0.533,1.008,0.702,0.340,0.586,0.557,�k�k��,7.4,��
2022/04/16,12:30,0.559,0.821,0.535,1.008,0.704,0.340,0.586,0.559,�k��,7.4,��
2022/04/16,12:40,0.558,0.822,0.533,1.007,0.704,0.342,0.588,0.557,�k�k��,6.9,��
2022/04/16,12:50,0.560,0.821,0.533,1.006,0.704,0.341,0.587,0.560,�k�k��,7.1,��
2022/04/16,13:00,0.559,0.821,0.535,1.007,0.704,0.342,0.586,0.560,�k�k��,6.3,�L
2022/04/16,13:10,0.560,0.821,0.532,1.008,0.706,0.342,0.588,0.560,�k�k��,5.3,��
2022/04/16,13:20,0.560,0.822,0.534,1.006,0.706,0.342,0.587,0.560,�k�k��,4.7,��
2022/04/16,13:30,0.560,0.823,0.533,1.009,0.708,0.342,0.588,0.559,�k�k��,4.4,��
2022/04/16,13:40,0.560,0.826,0.534,1.008,0.708,0.341,0.588,0.560,�k�k��,4.6,��
2022/04/16,13:50,0.562,0.825,0.535,1.008,0.707,0.342,0.588,0.560,�k��,4.3,��
2022/04/16,14:00,0.561,0.824,0.534,1.008,0.709,0.342,0.588,0.560,�k�k��,4.6,��
2022/04/16,14:10,0.561,0.824,0.534,1.010,0.708,0.342,0.587,0.558,�k��,5.3,��
2022/04/16,14:20,0.560,0.825,0.535,1.010,0.709,0.341,0.588,0.559,�k�k��,4.5,��
2022/04/16,14:30,0.561,0.825,0.534,1.009,0.705,0.342,0.588,0.558,�k��,4.4,��
2022/04/16,14:40,0.560,0.827,0.534,1.011,0.706,0.340,0.588,0.559,�k��,4.4,��
2022/04/16,14:50,0.561,0.827,0.535,1.010,0.710,0.341,0.587,0.560,�k��,4.0,��
2022/04/16,15:00,0.561,0.827,0.535,1.009,0.708,0.342,0.588,0.561,�k��,3.8,��
2022/04/16,15:10,0.562,0.828,0.535,1.011,0.708,0.343,0.588,0.560,�k��,4.1,��
2022/04/16,15:20,0.562,0.827,0.536,1.008,0.707,0.342,0.590,0.561,�k��,4.0,��
2022/04/16,15:30,0.560,0.828,0.536,1.010,0.707,0.342,0.588,0.560,�k��,4.2,��
2022/04/16,15:40,0.562,0.827,0.534,1.011,0.709,0.342,0.589,0.562,�k�k��,3.6,��
2022/04/16,15:50,0.561,0.829,0.535,1.011,0.710,0.342,0.589,0.562,�k�k��,3.6,��
2022/04/16,16:00,0.560,0.828,0.535,1.010,0.710,0.341,0.589,0.560,�k��,4.6,��
2022/04/16,16:10,0.562,0.828,0.535,1.010,0.711,0.341,0.587,0.561,�k��,4.7,��
2022/04/16,16:20,0.561,0.828,0.535,1.009,0.711,0.343,0.590,0.561,�k��,4.2,��
2022/04/16,16:30,0.561,0.828,0.536,1.011,0.709,0.342,0.589,0.561,�k��,4.1,��
2022/04/16,16:40,0.561,0.831,0.533,1.010,0.710,0.342,0.590,0.560,�k��,3.4,��
2022/04/16,16:50,0.562,0.828,0.536,1.010,0.711,0.342,0.589,0.560,�k��,3.5,��
2022/04/16,17:00,0.561,0.828,0.536,1.010,0.710,0.342,0.589,0.562,���k��,2.3,��
2022/04/16,17:10,0.560,0.831,0.533,1.011,0.711,0.341,0.589,0.559,�k��,2.5,��
2022/04/16,17:20,0.563,0.827,0.535,1.010,0.711,0.343,0.590,0.562,�k��,3.1,��
2022/04/16,17:30,0.561,0.829,0.534,1.008,0.709,0.342,0.591,0.561,�k�k��,3.2,��
2022/04/16,17:40,0.562,0.829,0.535,1.011,0.714,0.341,0.590,0.561,�k�k��,2.9,��
2022/04/16,17:50,0.560,0.829,0.535,1.010,0.711,0.340,0.589,0.560,�k�k��,2.6,��
2022/04/16,18:00,0.560,0.830,0.536,1.011,0.712,0.341,0.590,0.560,�k�k��,2.2,��
2022/04/16,18:10,0.562,0.830,0.536,1.010,0.710,0.340,0.591,0.560,�k,2.0,��
2022/04/16,18:20,0.560,0.831,0.536,1.010,0.711,0.343,0.591,0.561,�k,2.0,��
2022/04/16,18:30,0.561,0.830,0.537,1.011,0.711,0.343,0.591,0.560,�k,2.0,��
2022/04/16,18:40,0.561,0.829,0.534,1.011,0.711,0.342,0.590,0.561,�k�k��,1.5,��
2022/04/16,18:50,0.561,0.830,0.534,1.011,0.713,0.341,0.592,0.560,�k�k��,1.4,��
2022/04/16,19:00,0.561,0.831,0.536,1.012,0.711,0.342,0.593,0.558,�k�k��,0.9,��
2022/04/16,19:10,0.562,0.830,0.535,1.013,0.712,0.342,0.591,0.560,�k��,0.9,��
2022/04/16,19:20,0.562,0.829,0.534,1.011,0.710,0.342,0.591,0.560,�k�k��,0.9,��
2022/04/16,19:30,0.562,0.829,0.532,1.010,0.711,0.342,0.590,0.558,�k,0.6,��
2022/04/16,19:40,0.559,0.830,0.534,1.011,0.710,0.342,0.596,0.559,�k�k��,0.8,��
2022/04/16,19:50,0.562,0.829,0.535,1.011,0.712,0.341,0.591,0.560,�k�k��,1.1,��
2022/04/16,20:00,0.561,0.830,0.534,1.011,0.710,0.342,0.589,0.559,�k�k��,2.0,��
2022/04/16,20:10,0.561,0.830,0.536,1.011,0.711,0.342,0.589,0.561,���k��,2.3,��
2022/04/16,20:20,0.559,0.830,0.534,1.011,0.711,0.341,0.591,0.560,�k��,1.7,��
2022/04/16,20:30,0.561,0.827,0.534,1.011,0.713,0.340,0.590,0.561,�k��,2.3,��
2022/04/16,20:40,0.559,0.828,0.535,1.011,0.710,0.341,0.590,0.559,�k��,1.5,��
2022/04/16,20:50,0.559,0.830,0.534,1.011,0.711,0.342,0.588,0.559,�k�k��,2.2,��
2022/04/16,21:00,0.560,0.831,0.534,1.010,0.712,0.341,0.589,0.559,�k,2.3,��
2022/04/16,21:10,0.561,0.829,0.534,1.011,0.711,0.341,0.589,0.560,�k,2.0,��
2022/04/16,21:20,0.559,0.830,0.534,1.012,0.711,0.342,0.589,0.559,�k�k��,1.7,��
2022/04/16,21:30,0.560,0.829,0.535,1.010,0.710,0.341,0.590,0.559,�k�k��,1.9,��
2022/04/16,21:40,0.560,0.828,0.533,1.010,0.711,0.341,0.591,0.559,�k,1.7,��
2022/04/16,21:50,0.558,0.829,0.533,1.010,0.712,0.341,0.588,0.559,�k�k��,1.4,��
2022/04/16,22:00,0.559,0.829,0.534,1.011,0.710,0.342,0.590,0.558,�k,1.2,��
2022/04/16,22:10,0.560,0.829,0.533,1.012,0.711,0.341,0.590,0.559,�k�k��,2.3,��
2022/04/16,22:20,0.560,0.829,0.535,1.010,0.711,0.341,0.590,0.559,�k�k��,1.4,��
2022/04/16,22:30,0.560,0.828,0.533,1.011,0.711,0.342,0.589,0.559,�k��,1.2,��
2022/04/16,22:40,0.560,0.828,0.534,1.013,0.711,0.341,0.590,0.559,-,CALM,��
2022/04/16,22:50,0.558,0.829,0.534,1.009,0.712,0.341,0.590,0.559,�k�k��,1.5,��
2022/04/16,23:00,0.559,0.828,0.533,1.010,0.711,0.340,0.590,0.560,�k�k��,1.5,��
2022/04/16,23:10,0.560,0.829,0.534,1.013,0.711,0.340,0.588,0.560,-,CALM,��
2022/04/16,23:20,0.561,0.829,0.532,1.010,0.710,0.341,0.589,0.559,-,CALM,��
2022/04/16,23:30,0.560,0.829,0.533,1.012,0.713,0.341,0.589,0.560,�k��,0.6,��
2022/04/16,23:40,0.559,0.829,0.534,1.010,0.711,0.341,0.590,0.559,-,CALM,��
2022/04/16,23:50,0.558,0.829,0.534,1.010,0.714,0.341,0.589,0.560,-,CALM,��
